Wetterstation Vettwei-Soller: Standort 50 43' 54" Nord - 6 33' 24" Ost
Wetterdaten: aktuell Freitag, 27.11.2020 06:15
Datum Zeit Temp. A. Temp. A. min Temp. A. max Feuchte A. Luftdruck Regen Wind Richtung Richtung Sonnenschein Zeit Regen ET UV Solar Taupunkt Windchill Windben
27.11.2020 06:15 0,6 C 0,5 C 0,8 C 93 % 1020,2 hPa 0,0 l/m 2,0 km/h (1 Bft) S-SO 147 0 min 0 min 0,000 mm 0,0 UV-I 0 W/m -0,4 C 0,6 C 4,8 km/h (1 Bft)
27.11.2020 06:00 0,6 C 0,6 C 1,1 C 93 % 1020,3 hPa 0,0 l/m 1,2 km/h (1 Bft) SO 144 0 min 0 min 0,000 mm 0,0 UV-I 0 W/m -0,4 C 0,6 C 3,2 km/h (1 Bft)
27.11.2020 05:45 1,1 C 1,0 C 1,3 C 93 % 1020,4 hPa 0,0 l/m 0,2 km/h (0 Bft) SO 144 0 min 0 min 0,000 mm 0,0 UV-I 0 W/m 0,1 C 1,1 C 3,2 km/h (1 Bft)
27.11.2020 05:30 1,3 C 1,3 C 1,4 C 94 % 1020,4 hPa 0,0 l/m 0,8 km/h (0 Bft) SO 144 0 min 0 min 0,000 mm 0,0 UV-I 0 W/m 0,4 C 1,3 C 3,2 km/h (1 Bft)
27.11.2020 05:15 1,4 C 1,3 C 1,4 C 94 % 1020,5 hPa 0,0 l/m 0,4 km/h (0 Bft) SO 144 0 min 0 min 0,000 mm 0,0 UV-I 0 W/m 0,5 C 1,4 C 1,6 km/h (1 Bft)
27.11.2020 05:00 1,3 C 1,3 C 1,7 C 93 % 1020,5 hPa 0,0 l/m 0,7 km/h (0 Bft) SO 144 0 min 0 min 0,000 mm 0,0 UV-I 0 W/m 0,3 C 1,3 C 3,2 km/h (1 Bft)
27.11.2020 04:45 1,7 C 1,7 C 2,0 C 93 % 1020,6 hPa 0,0 l/m 0,1 km/h (0 Bft) SO 144 0 min 0 min 0,000 mm 0,0 UV-I 0 W/m 0,7 C 1,7 C 1,6 km/h (1 Bft)
27.11.2020 04:30 2,0 C 1,9 C 2,3 C 94 % 1020,7 hPa 0,0 l/m 0,3 km/h (0 Bft) SO 144 0 min 0 min 0,000 mm 0,0 UV-I 0 W/m 1,1 C 2,0 C 1,6 km/h (1 Bft)
27.11.2020 04:15 2,3 C 2,3 C 2,3 C 94 % 1020,8 hPa 0,0 l/m 1,6 km/h (1 Bft) SO 144 0 min 0 min 0,000 mm 0,0 UV-I 0 W/m 1,4 C 2,3 C 4,8 km/h (1 Bft)
27.11.2020 04:00 2,3 C 2,3 C 2,3 C 94 % 1020,9 hPa 0,0 l/m 1,1 km/h (1 Bft) SO 144 0 min 0 min 0,000 mm 0,0 UV-I 0 W/m 1,4 C 2,3 C 4,8 km/h (1 Bft)
27.11.2020 03:45 2,3 C 2,2 C 2,3 C 94 % 1020,9 hPa 0,0 l/m 0,7 km/h (0 Bft) SO 138 0 min 0 min 0,000 mm 0,0 UV-I 0 W/m 1,4 C 2,3 C 3,2 km/h (1 Bft)
27.11.2020 03:30 2,3 C 2,2 C 2,3 C 94 % 1021,1 hPa 0,0 l/m 0,5 km/h (0 Bft) SO 135 0 min 0 min 0,000 mm 0,0 UV-I 0 W/m 1,4 C 2,3 C 3,2 km/h (1 Bft)
27.11.2020 03:15 2,2 C 1,9 C 2,2 C 94 % 1021,1 hPa 0,0 l/m 0,5 km/h (0 Bft) O-NO 57 0 min 0 min 0,000 mm 0,0 UV-I 0 W/m 1,3 C 2,2 C 3,2 km/h (1 Bft)
27.11.2020 03:00 1,9 C 1,8 C 1,9 C 94 % 1021,1 hPa 0,0 l/m 0,1 km/h (0 Bft) NO 51 0 min 0 min 0,000 mm 0,0 UV-I 0 W/m 1,0 C 1,9 C 1,6 km/h (1 Bft)
27.11.2020 02:45 1,9 C 1,8 C 1,9 C 94 % 1021,1 hPa 0,0 l/m 0,6 km/h (0 Bft) NO 51 0 min 0 min 0,000 mm 0,0 UV-I 0 W/m 1,0 C 1,9 C 3,2 km/h (1 Bft)
27.11.2020 02:30 1,9 C 1,8 C 1,9 C 94 % 1021,1 hPa 0,0 l/m 1,8 km/h (1 Bft) NO 51 0 min 0 min 0,000 mm 0,0 UV-I 0 W/m 1,0 C 1,9 C 4,8 km/h (1 Bft)
27.11.2020 02:15 1,8 C 1,7 C 1,8 C 94 % 1021,0 hPa 0,0 l/m 0,8 km/h (0 Bft) SO 132 0 min 0 min 0,000 mm 0,0 UV-I 0 W/m 0,9 C 1,8 C 3,2 km/h (1 Bft)
27.11.2020 02:00 1,7 C 1,6 C 1,8 C 94 % 1020,8 hPa 0,0 l/m 0,4 km/h (0 Bft) SO 132 0 min 0 min 0,000 mm 0,0 UV-I 0 W/m 0,8 C 1,7 C 3,2 km/h (1 Bft)
27.11.2020 01:45 1,6 C 1,6 C 1,7 C 94 % 1020,8 hPa 0,0 l/m 0,7 km/h (0 Bft) SO 132 0 min 0 min 0,000 mm 0,0 UV-I 0 W/m 0,7 C 1,6 C 3,2 km/h (1 Bft)
27.11.2020 01:30 1,6 C 1,6 C 1,7 C 94 % 1020,7 hPa 0,0 l/m 1,7 km/h (1 Bft) SO 132 0 min 0 min 0,000 mm 0,0 UV-I 0 W/m 0,7 C 1,6 C 3,2 km/h (1 Bft)
27.11.2020 01:15 1,7 C 1,4 C 1,7 C 94 % 1020,8 hPa 0,0 l/m 0,9 km/h (0 Bft) SO 132 0 min 0 min 0,000 mm 0,0 UV-I 0 W/m 0,8 C 1,7 C 3,2 km/h (1 Bft)
27.11.2020 01:00 1,4 C 0,8 C 1,4 C 94 % 1021,1 hPa 0,0 l/m 0,4 km/h (0 Bft) SO 132 0 min 0 min 0,000 mm 0,0 UV-I 0 W/m 0,5 C 1,4 C 3,2 km/h (1 Bft)
27.11.2020 00:45 0,8 C 0,2 C 0,8 C 94 % 1021,1 hPa 0,0 l/m 1,1 km/h (1 Bft) SO 132 0 min 0 min 0,000 mm 0,0 UV-I 0 W/m -0,1 C 0,8 C 3,2 km/h (1 Bft)
27.11.2020 00:30 0,2 C 0,1 C 0,3 C 93 % 1021,3 hPa 0,0 l/m 0,5 km/h (0 Bft) SO 132 0 min 0 min 0,000 mm 0,0 UV-I 0 W/m -0,8 C 0,2 C 3,2 km/h (1 Bft)
27.11.2020 00:15 0,1 C 0,0 C 0,3 C 93 % 1021,4 hPa 0,0 l/m 0,1 km/h (0 Bft) SO 132 0 min 0 min 0,000 mm 0,0 UV-I 0 W/m -0,9 C 0,1 C 1,6 km/h (1 Bft)
27.11.2020 00:00 0,2 C 0,2 C 0,4 C 93 % 1021,3 hPa 0,0 l/m 0,0 km/h (0 Bft) SO 132 0 min 0 min 0,000 mm 0,0 UV-I 0 W/m -0,8 C 0,2 C 1,6 km/h (1 Bft)
26.11.2020 23:45 0,3 C 0,3 C 0,7 C 93 % 1021,2 hPa 0,0 l/m 0,2 km/h (0 Bft) SO 132 0 min 0 min 0,000 mm 0,0 UV-I 0 W/m -0,7 C 0,3 C 1,6 km/h (1 Bft)
26.11.2020 23:30 0,6 C 0,6 C 0,8 C 93 % 1021,2 hPa 0,0 l/m 0,2 km/h (0 Bft) SO 132 0 min 0 min 0,000 mm 0,0 UV-I 0 W/m -0,4 C 0,6 C 1,6 km/h (1 Bft)
26.11.2020 23:15 0,7 C 0,6 C 0,8 C 93 % 1021,1 hPa 0,0 l/m 0,5 km/h (0 Bft) SO 132 0 min 0 min 0,000 mm 0,0 UV-I 0 W/m -0,3 C 0,7 C 1,6 km/h (1 Bft)
26.11.2020 23:00 0,8 C 0,8 C 0,9 C 93 % 1021,1 hPa 0,0 l/m 0,0 km/h (0 Bft) SO 132 0 min 0 min 0,000 mm 0,0 UV-I 0 W/m -0,2 C 0,8 C 0,0 km/h (0 Bft)
26.11.2020 22:45 0,9 C 0,7 C 0,9 C 93 % 1021,1 hPa 0,0 l/m 0,5 km/h (0 Bft) SO 132 0 min 0 min 0,000 mm 0,0 UV-I 0 W/m -0,1 C 0,9 C 3,2 km/h (1 Bft)
26.11.2020 22:30 0,8 C 0,6 C 0,9 C 93 % 1021,1 hPa 0,0 l/m 2,3 km/h (1 Bft) SO 132 0 min 0 min 0,000 mm 0,0 UV-I 0 W/m -0,2 C 0,8 C 4,8 km/h (1 Bft)
26.11.2020 22:15 0,8 C 0,8 C 1,2 C 93 % 1021,2 hPa 0,0 l/m 0,4 km/h (0 Bft) O-SO 119 0 min 0 min 0,000 mm 0,0 UV-I 0 W/m -0,2 C 0,8 C 3,2 km/h (1 Bft)
26.11.2020 22:00 1,2 C 1,2 C 1,3 C 93 % 1021,1 hPa 0,0 l/m 0,0 km/h (0 Bft) O-SO 119 0 min 0 min 0,000 mm 0,0 UV-I 0 W/m 0,2 C 1,2 C 0,0 km/h (0 Bft)
26.11.2020 21:45 1,3 C 1,2 C 1,6 C 93 % 1021,1 hPa 0,0 l/m 0,0 km/h (0 Bft) O-SO 119 0 min 0 min 0,000 mm 0,0 UV-I 0 W/m 0,3 C 1,3 C 0,0 km/h (0 Bft)
26.11.2020 21:30 1,6 C 1,4 C 1,6 C 93 % 1021,0 hPa 0,0 l/m 0,0 km/h (0 Bft) O-SO 119 0 min 0 min 0,000 mm 0,0 UV-I 0 W/m 0,6 C 1,6 C 1,6 km/h (1 Bft)
26.11.2020 21:15 1,5 C 1,5 C 1,8 C 93 % 1021,0 hPa 0,0 l/m 0,0 km/h (0 Bft) O-SO 119 0 min 0 min 0,000 mm 0,0 UV-I 0 W/m 0,5 C 1,5 C 0,0 km/h (0 Bft)
26.11.2020 21:00 1,8 C 1,8 C 2,0 C 93 % 1021,0 hPa 0,0 l/m 0,1 km/h (0 Bft) O-SO 119 0 min 0 min 0,000 mm 0,0 UV-I 0 W/m 0,8 C 1,8 C 1,6 km/h (1 Bft)
26.11.2020 20:45 2,0 C 1,9 C 2,7 C 93 % 1021,1 hPa 0,0 l/m 0,2 km/h (0 Bft) O-SO 119 0 min 0 min 0,000 mm 0,0 UV-I 0 W/m 1,0 C 2,0 C 1,6 km/h (1 Bft)
26.11.2020 20:30 2,7 C 2,7 C 2,8 C 93 % 1021,1 hPa 0,0 l/m 0,3 km/h (0 Bft) O-SO 119 0 min 0 min 0,000 mm 0,0 UV-I 0 W/m 1,7 C 2,7 C 3,2 km/h (1 Bft)
26.11.2020 20:15 2,7 C 2,6 C 2,7 C 93 % 1021,0 hPa 0,0 l/m 0,3 km/h (0 Bft) O-SO 119 0 min 0 min 0,000 mm 0,0 UV-I 0 W/m 1,7 C 2,7 C 3,2 km/h (1 Bft)
26.11.2020 20:00 2,7 C 2,6 C 2,7 C 93 % 1020,9 hPa 0,0 l/m 0,3 km/h (0 Bft) O-SO 119 0 min 0 min 0,000 mm 0,0 UV-I 0 W/m 1,7 C 2,7 C 1,6 km/h (1 Bft)
26.11.2020 19:45 2,7 C 2,6 C 2,9 C 92 % 1021,0 hPa 0,0 l/m 1,5 km/h (1 Bft) O-SO 119 0 min 0 min 0,000 mm 0,0 UV-I 0 W/m 1,5 C 2,7 C 3,2 km/h (1 Bft)
26.11.2020 19:30 2,9 C 2,9 C 3,2 C 92 % 1021,0 hPa 0,0 l/m 1,0 km/h (0 Bft) O-SO 119 0 min 0 min 0,000 mm 0,0 UV-I 0 W/m 1,7 C 2,9 C 3,2 km/h (1 Bft)
26.11.2020 19:15 3,2 C 3,2 C 3,5 C 92 % 1021,0 hPa 0,0 l/m 1,8 km/h (1 Bft) O-SO 119 0 min 0 min 0,000 mm 0,0 UV-I 0 W/m 2,0 C 3,2 C 4,8 km/h (1 Bft)
26.11.2020 19:00 3,5 C 3,4 C 3,6 C 92 % 1021,1 hPa 0,0 l/m 2,1 km/h (1 Bft) O-SO 119 0 min 0 min 0,000 mm 0,0 UV-I 0 W/m 2,3 C 3,5 C 4,8 km/h (1 Bft)
26.11.2020 18:45 3,4 C 3,3 C 3,4 C 92 % 1021,3 hPa 0,0 l/m 0,6 km/h (0 Bft) O-SO 119 0 min 0 min 0,000 mm 0,0 UV-I 0 W/m 2,2 C 3,4 C 3,2 km/h (1 Bft)
26.11.2020 18:30 3,3 C 3,3 C 3,6 C 91 % 1021,2 hPa 0,0 l/m 1,8 km/h (1 Bft) O-SO 119 0 min 0 min 0,000 mm 0,0 UV-I 0 W/m 2,0 C 3,3 C 6,4 km/h (2 Bft)
26.11.2020 18:15 3,6 C 3,6 C 4,3 C 90 % 1021,2 hPa 0,0 l/m 2,8 km/h (1 Bft) O-SO 121 0 min 0 min 0,000 mm 0,0 UV-I 0 W/m 2,1 C 3,6 C 4,8 km/h (1 Bft)
26.11.2020 18:00 4,3 C 4,3 C 4,6 C 89 % 1021,3 hPa 0,0 l/m 2,4 km/h (1 Bft) O 82 0 min 0 min 0,000 mm 0,0 UV-I 0 W/m 2,7 C 4,3 C 6,4 km/h (2 Bft)
26.11.2020 17:45 4,6 C 4,6 C 5,5 C 89 % 1021,3 hPa 0,0 l/m 1,6 km/h (1 Bft) O 92 0 min 0 min 0,000 mm 0,0 UV-I 0 W/m 2,9 C 4,6 C 4,8 km/h (1 Bft)
26.11.2020 17:30 5,5 C 5,5 C 5,7 C 88 % 1021,2 hPa 0,0 l/m 2,5 km/h (1 Bft) O-NO 72 0 min 0 min 0,000 mm 0,0 UV-I 0 W/m 3,7 C 5,5 C 6,4 km/h (2 Bft)
26.11.2020 17:15 5,7 C 5,7 C 5,8 C 88 % 1021,1 hPa 0,0 l/m 2,5 km/h (1 Bft) O-NO 72 0 min 0 min 0,000 mm 0,0 UV-I 0 W/m 3,9 C 5,7 C 6,4 km/h (2 Bft)
26.11.2020 17:00 5,8 C 5,8 C 5,9 C 88 % 1021,2 hPa 0,0 l/m 2,5 km/h (1 Bft) NO 55 0 min 0 min 0,000 mm 0,0 UV-I 0 W/m 4,0 C 5,8 C 4,8 km/h (1 Bft)
26.11.2020 16:45 5,9 C 5,9 C 6,2 C 88 % 1021,2 hPa 0,0 l/m 2,6 km/h (1 Bft) O-NO 75 0 min 0 min 0,000 mm 0,0 UV-I 0 W/m 4,1 C 5,9 C 4,8 km/h (1 Bft)
26.11.2020 16:30 6,2 C 6,1 C 6,4 C 88 % 1021,1 hPa 0,0 l/m 2,6 km/h (1 Bft) O-SO 110 0 min 0 min 0,000 mm 0,0 UV-I 0 W/m 4,4 C 6,2 C 4,8 km/h (1 Bft)
26.11.2020 16:15 6,3 C 6,3 C 7,0 C 87 % 1021,3 hPa 0,0 l/m 4,1 km/h (1 Bft) O-SO 118 0 min 0 min 0,025 mm 0,0 UV-I 7 W/m 4,3 C 6,3 C 9,7 km/h (2 Bft)
26.11.2020 16:00 6,9 C 6,9 C 7,4 C 87 % 1021,1 hPa 0,0 l/m 4,2 km/h (1 Bft) O-SO 113 0 min 0 min 0,000 mm 0,0 UV-I 19 W/m 4,9 C 6,9 C 9,7 km/h (2 Bft)
26.11.2020 15:45 7,4 C 7,4 C 7,7 C 87 % 1021,0 hPa 0,0 l/m 4,0 km/h (1 Bft) O-SO 119 0 min 0 min 0,000 mm 0,0 UV-I 30 W/m 5,4 C 7,4 C 9,7 km/h (2 Bft)
26.11.2020 15:30 7,7 C 7,7 C 7,7 C 87 % 1021,0 hPa 0,0 l/m 4,1 km/h (1 Bft) O-SO 115 0 min 0 min 0,000 mm 0,0 UV-I 33 W/m 5,7 C 7,7 C 9,7 km/h (2 Bft)
26.11.2020 15:15 7,7 C 7,7 C 7,8 C 87 % 1021,1 hPa 0,0 l/m 4,3 km/h (1 Bft) O-SO 111 0 min 0 min 0,051 mm 0,0 UV-I 53 W/m 5,7 C 7,7 C 9,7 km/h (2 Bft)
26.11.2020 15:00 7,8 C 7,7 C 7,8 C 87 % 1021,2 hPa 0,0 l/m 3,6 km/h (1 Bft) O 100 0 min 0 min 0,000 mm 0,0 UV-I 74 W/m 5,8 C 7,8 C 9,7 km/h (2 Bft)
26.11.2020 14:45 7,8 C 7,8 C 8,0 C 85 % 1021,3 hPa 0,0 l/m 3,4 km/h (1 Bft) SO 128 0 min 0 min 0,000 mm 0,0 UV-I 79 W/m 5,4 C 7,8 C 6,4 km/h (2 Bft)
26.11.2020 14:30 7,8 C 7,8 C 8,0 C 86 % 1021,3 hPa 0,0 l/m 4,0 km/h (1 Bft) O-SO 121 0 min 0 min 0,000 mm 0,0 UV-I 65 W/m 5,6 C 7,8 C 9,7 km/h (2 Bft)
26.11.2020 14:15 7,9 C 7,8 C 7,9 C 86 % 1021,3 hPa 0,0 l/m 4,5 km/h (1 Bft) SO 129 0 min 0 min 0,000 mm 0,0 UV-I 77 W/m 5,7 C 7,9 C 8,0 km/h (2 Bft)
26.11.2020 14:00 7,8 C 7,8 C 7,9 C 86 % 1021,4 hPa 0,0 l/m 4,2 km/h (1 Bft) SO 126 0 min 0 min 0,051 mm 0,0 UV-I 91 W/m 5,6 C 7,8 C 11,3 km/h (2 Bft)
26.11.2020 13:45 7,8 C 7,7 C 7,9 C 86 % 1021,5 hPa 0,0 l/m 5,4 km/h (1 Bft) O-SO 111 0 min 0 min 0,000 mm 0,0 UV-I 142 W/m 5,6 C 7,1 C 11,3 km/h (2 Bft)
26.11.2020 13:30 7,9 C 7,9 C 8,0 C 86 % 1021,6 hPa 0,0 l/m 3,9 km/h (1 Bft) O-SO 106 0 min 0 min 0,000 mm 0,0 UV-I 88 W/m 5,7 C 7,9 C 9,7 km/h (2 Bft)
26.11.2020 13:15 7,9 C 7,9 C 8,5 C 85 % 1021,7 hPa 0,0 l/m 3,5 km/h (1 Bft) O-SO 113 0 min 0 min 0,000 mm 0,0 UV-I 77 W/m 5,5 C 7,9 C 6,4 km/h (2 Bft)
26.11.2020 13:00 8,5 C 8,5 C 8,8 C 83 % 1021,7 hPa 0,0 l/m 3,5 km/h (1 Bft) O-SO 119 0 min 0 min 0,101 mm 0,0 UV-I 49 W/m 5,8 C 8,5 C 6,4 km/h (2 Bft)
26.11.2020 12:45 8,7 C 8,4 C 8,7 C 83 % 1021,7 hPa 0,0 l/m 4,1 km/h (1 Bft) O-SO 121 15 min 0 min 0,000 mm 0,6 UV-I 264 W/m 6,0 C 8,7 C 6,4 km/h (2 Bft)
26.11.2020 12:30 8,4 C 8,1 C 8,4 C 84 % 1021,9 hPa 0,0 l/m 5,1 km/h (1 Bft) O-SO 103 15 min 0 min 0,000 mm 0,6 UV-I 264 W/m 5,9 C 7,9 C 11,3 km/h (2 Bft)
26.11.2020 12:15 8,1 C 7,5 C 8,1 C 86 % 1022,1 hPa 0,0 l/m 5,0 km/h (1 Bft) SO 134 15 min 0 min 0,000 mm 0,6 UV-I 264 W/m 5,9 C 7,6 C 9,7 km/h (2 Bft)
26.11.2020 12:00 7,5 C 7,1 C 7,5 C 86 % 1022,2 hPa 0,0 l/m 5,9 km/h (2 Bft) SO 128 15 min 0 min 0,076 mm 0,6 UV-I 258 W/m 5,3 C 6,6 C 11,3 km/h (2 Bft)
26.11.2020 11:45 7,1 C 7,0 C 7,2 C 87 % 1022,4 hPa 0,0 l/m 4,6 km/h (1 Bft) O-SO 117 15 min 0 min 0,000 mm 0,5 UV-I 250 W/m 5,1 C 6,6 C 11,3 km/h (2 Bft)
26.11.2020 11:30 7,0 C 6,9 C 7,2 C 87 % 1022,5 hPa 0,0 l/m 5,2 km/h (1 Bft) O-SO 115 15 min 0 min 0,000 mm 0,5 UV-I 246 W/m 5,0 C 6,3 C 12,9 km/h (3 Bft)
26.11.2020 11:15 7,1 C 6,7 C 7,1 C 87 % 1022,8 hPa 0,0 l/m 4,0 km/h (1 Bft) O-SO 116 15 min 0 min 0,000 mm 0,5 UV-I 204 W/m 5,1 C 7,1 C 9,7 km/h (2 Bft)
26.11.2020 11:00 6,7 C 6,4 C 6,7 C 87 % 1022,7 hPa 0,0 l/m 3,6 km/h (1 Bft) O-SO 115 0 min 0 min 0,026 mm 0,0 UV-I 46 W/m 4,7 C 6,7 C 6,4 km/h (2 Bft)
26.11.2020 10:45 6,5 C 6,3 C 6,6 C 87 % 1022,6 hPa 0,0 l/m 3,2 km/h (1 Bft) O-SO 114 0 min 0 min 0,000 mm 0,0 UV-I 44 W/m 4,5 C 6,5 C 6,4 km/h (2 Bft)
26.11.2020 10:30 6,4 C 6,3 C 6,5 C 87 % 1022,5 hPa 0,0 l/m 1,8 km/h (1 Bft) SO 127 0 min 0 min 0,000 mm 0,0 UV-I 33 W/m 4,4 C 6,4 C 4,8 km/h (1 Bft)
26.11.2020 10:15 6,3 C 5,9 C 6,3 C 88 % 1022,5 hPa 0,0 l/m 1,5 km/h (1 Bft) SO 127 0 min 0 min 0,000 mm 0,0 UV-I 37 W/m 4,5 C 6,3 C 3,2 km/h (1 Bft)
26.11.2020 10:00 6,0 C 5,5 C 6,0 C 89 % 1022,6 hPa 0,0 l/m 1,5 km/h (1 Bft) SO 127 0 min 0 min 0,025 mm 0,0 UV-I 35 W/m 4,3 C 6,0 C 3,2 km/h (1 Bft)
26.11.2020 09:45 5,5 C 5,3 C 5,5 C 90 % 1022,4 hPa 0,0 l/m 2,2 km/h (1 Bft) SO 127 0 min 0 min 0,000 mm 0,0 UV-I 54 W/m 4,0 C 5,5 C 4,8 km/h (1 Bft)
26.11.2020 09:30 5,3 C 4,8 C 5,3 C 90 % 1022,4 hPa 0,0 l/m 2,0 km/h (1 Bft) SO 127 0 min 0 min 0,000 mm 0,0 UV-I 62 W/m 3,8 C 5,3 C 4,8 km/h (1 Bft)
26.11.2020 09:15 4,8 C 4,6 C 4,8 C 91 % 1022,4 hPa 0,0 l/m 0,3 km/h (0 Bft) SO 127 0 min 0 min 0,000 mm 0,0 UV-I 28 W/m 3,5 C 4,8 C 3,2 km/h (1 Bft)
26.11.2020 09:00 4,7 C 4,7 C 4,9 C 91 % 1022,4 hPa 0,0 l/m 1,9 km/h (1 Bft) SO 127 0 min 0 min 0,000 mm 0,0 UV-I 21 W/m 3,4 C 4,7 C 4,8 km/h (1 Bft)
26.11.2020 08:45 4,9 C 4,9 C 5,0 C 91 % 1022,4 hPa 0,0 l/m 1,5 km/h (1 Bft) SO 127 0 min 0 min 0,000 mm 0,0 UV-I 19 W/m 3,6 C 4,9 C 4,8 km/h (1 Bft)
26.11.2020 08:30 5,0 C 4,9 C 5,1 C 91 % 1022,4 hPa 0,0 l/m 1,4 km/h (1 Bft) SO 127 0 min 0 min 0,000 mm 0,0 UV-I 16 W/m 3,7 C 5,0 C 3,2 km/h (1 Bft)
26.11.2020 08:15 5,1 C 5,1 C 5,3 C 90 % 1022,3 hPa 0,0 l/m 0,7 km/h (0 Bft) SO 127 0 min 0 min 0,000 mm 0,0 UV-I 5 W/m 3,6 C 5,1 C 3,2 km/h (1 Bft)
26.11.2020 08:00 5,3 C 5,3 C 5,4 C 91 % 1022,0 hPa 0,0 l/m 0,4 km/h (0 Bft) SO 127 0 min 0 min 0,000 mm 0,0 UV-I 0 W/m 4,0 C 5,3 C 3,2 km/h (1 Bft)
26.11.2020 07:45 5,4 C 5,3 C 5,4 C 90 % 1022,2 hPa 0,0 l/m 0,4 km/h (0 Bft) N-NO 27 0 min 0 min 0,000 mm 0,0 UV-I 0 W/m 3,9 C 5,4 C 3,2 km/h (1 Bft)
26.11.2020 07:30 5,3 C 5,3 C 5,8 C 91 % 1022,1 hPa 0,0 l/m 0,7 km/h (0 Bft) N-NO 27 0 min 0 min 0,000 mm 0,0 UV-I 0 W/m 4,0 C 5,3 C 4,8 km/h (1 Bft)
26.11.2020 07:15 5,8 C 5,8 C 6,0 C 91 % 1022,0 hPa 0,0 l/m 0,2 km/h (0 Bft) N-NW 347 0 min 0 min 0,000 mm 0,0 UV-I 0 W/m 4,4 C 5,8 C 3,2 km/h (1 Bft)
26.11.2020 07:00 5,9 C 5,9 C 6,4 C 90 % 1022,1 hPa 0,0 l/m 0,6 km/h (0 Bft) N-NW 347 0 min 0 min 0,000 mm 0,0 UV-I 0 W/m 4,4 C 5,9 C 3,2 km/h (1 Bft)
_ Min-Zeit 00:15 00:15 00:15 12:45 06:15 - 21:15 - - - - - - - 00:15 00:15 21:15
Minimum _ 0,0 C 0,0 C 0,3 C 83 % 1020,2 hPa - 0,0 km/h (0 Bft) - - - - - - - -0,9 C 0,1 C 0,0 km/h (0 Bft)
_ Max-Zeit 13:00 13:00 13:00 00:45 11:15 07:00 12:00 - - 11:15 07:00 13:00 12:00 12:15 12:45 12:45 11:30
Maximum _ 8,8 C 8,5 C 8,8 C 94 % 1022,8 hPa 0,0 l/m 5,9 km/h
SO (2 Bft)
- - 15 min 0 min 0,101 mm 0,6 UV-I 264 W/m 6,0 C 8,7 C 12,9 km/h
O-SO (3 Bft)
Durchschnitt _ 4,1 C 4,0 C 4,3 C 91 % 1021,4 hPa #0,0 l/m 1,7 km/h (1 Bft) O-SO - #0 min. #0 min. #0,000 mm 0,0 UV-I 0 W/m 2,7 C 4,1 C 4,7 km/h (1 Bft)